Regional Weather Roundup
Issued by NWS Grand Forks, ND

Home | Current Version | Previous Version | Text Only | Print | Product List | Glossary Off
Versions: 1 2 3 4 5 6 7 8 9 10 11 12 13 14 15 16 17 18 19 20 21 22 23 24 25 26 27 28 29 30 31 32 33 34 35 36 37 38 39 40 41 42 43 44 45 46 47 48 49 50

169
ASUS43 KFGF 211831
RWRFGF
PRAIRIE TO PINES  WEATHER ROUNDUP
NATIONAL WEATHER SERVICE EASTERN NORTH DAKOTA/GRAND FORKS ND
1200 PM CST TUE FEB 21 2017

 **SATELLITE DATA USED TO AUGMENT SKY COVER AT AUTOMATED STATIONS**
 *****  WEATHER ACROSS EASTERN NORTH DAKOTA  *****

CITY           SKY/WX    TMP DP  RH WIND       PRES   REMARKS
GRAND FORKS    FAIR      42  32  67 CALM      29.67S
6HR MIN TEMP:  30; 6HR MAX TEMP:  42;

GRAND FRKS AFB SUNNY     41  36  83 CALM      29.67F
DEVILS LAKE    FAIR      37  34  89 NW3       29.66S
6HR MIN TEMP:  27; 6HR MAX TEMP:  37;

FARGO          FAIR      43  37  79 SW10      29.67S
WAHPETON ARPT    N/A     46  39  76 SW5       29.69F
$$

 ***** WEATHER ACROSS CENTRAL AND WESTERN NORTH DAKOTA  *****

CITY           SKY/WX    TMP DP  RH WIND       PRES   REMARKS
BISMARCK       FAIR      46  33  60 SW3       29.70S
6HR MIN TEMP:  28; 6HR MAX TEMP:  47;

MINOT          FAIR      45  34  65 SW9       29.65R
6HR MIN TEMP:  28; 6HR MAX TEMP:  45; 6HR PCP: TRACE;

JAMESTOWN      FAIR      44  35  70 W12       29.66S
6HR MIN TEMP:  34; 6HR MAX TEMP:  44;

MINOT AFB      SUNNY     40  34  79 CALM      29.64S
GARRISON         N/A     43  34  70 W6        29.66F
WILLISTON      FAIR      40  32  73 SW8       29.67R
6HR MIN TEMP:  28; 6HR MAX TEMP:  40;

DICKINSON      PTSUNNY   49  32  52 SW8       29.67F
6HR MIN TEMP:  34; 6HR MAX TEMP:  50;

HETTINGER      FAIR      60  32  34 W7        29.73S
6HR MIN TEMP:  31; 6HR MAX TEMP:  60;

$$

 *****  OTHER AIRPORT OBSERVATIONS IN OUR AREA  *****

CITY           SKY/WX    TMP DP  RH WIND       PRES   REMARKS
WALHALLA       NOT AVBL
GRAFTON AIRPOR FOG       32  32 100 NE7       29.70F VSB<1/4
VALLEY CITY AR FAIR      45  43  93 W12       29.68S
CANDO          NOT AVBL
CAVALIER APRT  FOG       32  32 100 CALM      29.70S VSB<1/4
GWINNER        FAIR      52  39  62 W12       29.70R
ROLLA          FAIR      34  34 100 E3        29.66F
 ***** THE ABOVE OBSERVATIONS ARE NON NWS ARE NOT QUALITY
       CONTROLLED AND MAY MIS-REPORT RAIN FOR SNOW...
$$

  *****  WEATHER ACROSS NORTHERN MINNESOTA  *****

CITY           SKY/WX    TMP DP  RH WIND       PRES   REMARKS
FLAG ISLAND    CLOUDY    32  30  93 S6        29.71F FOG
WARROAD        FOG       34  28  80 E6        29.72S VSB 1
ROSEAU         FOG       34  28  80 SE7       29.72R VSB 1/4
HALLOCK        FOG       34  34 100 E9        29.69F VSB 1/4
THF RVR FALLS  FAIR      41  36  82 E9        29.68F
6HR MIN TEMP:  30; 6HR MAX TEMP:  41;

BAUDETTE       CLOUDY    35  32  88 SE3       29.71F
6HR MIN TEMP:  31; 6HR MAX TEMP:  35; 6HR PCP: TRACE;

WASKISH        FAIR      43  43 100 E5        29.69F
CROOKSTON      FAIR      45  37  76 S3        29.67F
STEPHEN NDAWN    N/A     34  34 100 E8          N/A
GREENBUSH NDAW   N/A     32  32 100 E5          N/A
$$
  *****  WEATHER ACROSS CENTRAL AND WEST MINNESOTA  *****

CITY           SKY/WX    TMP DP  RH WIND       PRES   REMARKS
FOSSTON        FAIR      46  39  76 S12       29.66F
BEMIDJI        FAIR      42  35  74 SE7       29.67F
PARK RAPIDS    FAIR      44  32  62 S10       29.68F
6HR MIN TEMP:  30; 6HR MAX TEMP:  44;

ELBOW LAKE     FAIR      49  40  73 W10       29.70F
WADENA         FAIR      48  39  71 SW12      29.68F
DETROIT LAKES  FAIR      45  37  76 S9        29.68F
MOORHEAD       FAIR      41  36  81 S8        29.69R
FERGUS FALLS   FAIR      46  39  76 S9        29.72F
MORRIS MN      FAIR      52  45  76 S8        29.70S
STAPLES        FAIR      46  37  71 S14       29.69F
$$
  *****  WEATHER ELSEWHERE ACROSS MINNESOTA  *****

CITY           SKY/WX    TMP DP  RH WIND       PRES   REMARKS
DULUTH         FAIR      40  34  79 SW8       29.79F
6HR MIN TEMP:  33; 6HR MAX TEMP:  40;

INTRNTL FALLS  CLOUDY    37  32  82 CALM      29.73S
6HR MIN TEMP:  33; 6HR MAX TEMP:  37;

ELY            FAIR      37  34  87 S5        29.75F
CLOQUET        FAIR      41  34  75 S3        29.78F
WHEATON        FAIR      54  37  54 SW7       29.71F
BRAINERD       FAIR      48  36  63 SE13      29.72F
6HR MIN TEMP:  30; 6HR MAX TEMP:  48;

HIBBING        FAIR      36  36 100 E6        29.77F
6HR MIN TEMP:  32; 6HR MAX TEMP:  37;

ALEXANDRIA     FAIR      50  40  68 S15       29.72F
6HR MIN TEMP:  30; 6HR MAX TEMP:  50;

SAINT CLOUD    FAIR      51  40  65 S13       29.76F
6HR MIN TEMP:  28; 6HR MAX TEMP:  51;

MINNEAPOLIS    FAIR      53  39  59 VRB7      29.83F
6HR MIN TEMP:  32; 6HR MAX TEMP:  53;

$$

  *****  WEATHER ACROSS SOUTH DAKOTA  *****

CITY           SKY/WX    TMP DP  RH WIND       PRES   REMARKS
SIOUX FALLS    FAIR      57  38  48 SW10      29.79F
6HR MIN TEMP:  38; 6HR MAX TEMP:  57;

BROOKINGS      FAIR      53  36  52 SW13      29.75F
WATERTOWN      FAIR      49  38  65 S9        29.73F
6HR MIN TEMP:  34; 6HR MAX TEMP:  49;

HURON          FAIR      59  38  45 S5        29.74F
6HR MIN TEMP:  36; 6HR MAX TEMP:  59;

SISSETON         N/A     53  40  61 W12       29.68F
ABERDEEN       FAIR      51  37  58 W8        29.72S
6HR MIN TEMP:  34; 6HR MAX TEMP:  51;

MITCHELL       FAIR      62  34  35 W12       29.77F
PIERRE         FAIR      64  36  35 W6        29.73F
6HR MIN TEMP:  34; 6HR MAX TEMP:  64;

MOBRIDGE       FAIR      53  35  50 W3        29.70R
RAPID CITY     FAIR      67  31  26 W32G41    29.74F
6HR MIN TEMP:  43; 6HR MAX TEMP:  68;

$$

  *****  SOME WEATHER IN NEARBY STATES *****

CITY           SKY/WX    TMP DP  RH WIND       PRES   REMARKS
GLASGOW MT       N/A     43  35  73 W9        29.67
GREAT FALLS MT PTSUNNY   45  33  63 NE5       29.62R
6HR MIN TEMP:  37; 6HR MAX TEMP:  45; 6HR PCP:  0.01;

CHEYENNE WY    FAIR      59  21  23 W40G53    30.06R
6HR MIN TEMP:  46; 6HR MAX TEMP:  60;

SCOTTSBLUFF NE FAIR      69  25  19 W36G47    29.89F
6HR MIN TEMP:  27; 6HR MAX TEMP:  69;

OMAHA NE       FAIR      62  40  44 S10       29.96F
6HR MIN TEMP:  32; 6HR MAX TEMP:  62;

DES MOINES IA  FAIR      60  44  55 SW7       29.96F
6HR MIN TEMP:  36; 6HR MAX TEMP:  60;

DAVENPORT IA   FAIR      57  45  64 CALM      29.96F
6HR MIN TEMP:  43; 6HR MAX TEMP:  57;

CHICAGO IL     CLOUDY    62  54  74 SW12      29.93F
6HR MIN TEMP:  55; 6HR MAX TEMP:  63; 6HR PCP:  0.01;

EAU CLAIRE WI  FAIR      46  37  71 S6        29.89F
6HR MIN TEMP:  36; 6HR MAX TEMP:  46;

LA CROSSE WI   FAIR      52  40  63 SE6       29.93F
6HR MIN TEMP:  37; 6HR MAX TEMP:  52;

$$

  *****  SOME NATIONAL WEATHER *****

CITY           SKY/WX    TMP DP  RH WIND       PRES   REMARKS
LA GUARDIA NY  PTSUNNY   47  27  45 S10       30.30F
6HR MIN TEMP:  36; 6HR MAX TEMP:  47;

RALEIGH NC     CLOUDY    62  33  33 E8        30.21F
6HR MIN TEMP:  45; 6HR MAX TEMP:  63;

ATLANTA GA     PTSUNNY   69  56  62 SE10G18   30.05F
6HR MIN TEMP:  55; 6HR MAX TEMP:  69;

NEW ORLEANS LA PTSUNNY   66  58  75 N5        29.93F
6HR MIN TEMP:  61; 6HR MAX TEMP:  68; 6HR PCP: TRACE;

OKLAHOMA CITY  FAIR      64  43  46 N15       30.02F
6HR MIN TEMP:  45; 6HR MAX TEMP:  64;

ALBUQUERQUE NM FAIR      57  34  41 N9        30.35F
6HR MIN TEMP:  42; 6HR MAX TEMP:  57;

SALT LAKE CITY FAIR      59  38  45 S35G45    30.02F
6HR MIN TEMP:  51; 6HR MAX TEMP:  59;

LOS ANGELES CA CLOUDY    61  58  90 VRB3      30.34R
6HR MIN TEMP:  57; 6HR MAX TEMP:  61; 6HR PCP:  0.01;

BOISE ID       FAIR      53  30  41 SW20G32   29.90R
6HR MIN TEMP:  44; 6HR MAX TEMP:  54;

SEATTLE WA     CLOUDY



USA.gov is the U.S. government's official web portal to all federal, state and local government web resources and services.